This is the latest recevied weather packets stored in our database for station/object KC1BRV. If no packets are shown the sender has not sent any weather packets the latest 10 day(s).
| Time | Temp. | Humidity | Pressure | Rain* | Wind** | Luminosity | Snow |
|---|---|---|---|---|---|---|---|
| 1777749554 | 10.56° C | 88% | 1012 hPa | 0 mm | - | 101 W/m² | - |
| 1777749252 | 10.56° C | 88% | 1011.9 hPa | 0 mm | - | 105 W/m² | - |
| 1777748949 | 10.56° C | 89% | 1011.9 hPa | 0 mm | - | 106 W/m² | - |
| 1777748646 | 10.56° C | 89% | 1011.9 hPa | 0 mm | - | 134 W/m² | - |
| 1777748342 | 10.56° C | 89% | 1012.2 hPa | 0 mm | - | 105 W/m² | - |
| 1777748037 | 10.56° C | 91% | 1012.2 hPa | 0 mm | - | 99 W/m² | - |
| 1777747735 | 10° C | 90% | 1012.1 hPa | 0 mm | - | 130 W/m² | - |
| 1777747430 | 10° C | 90% | 1012.3 hPa | 0 mm | - | 133 W/m² | - |
| 1777747127 | 10° C | 89% | 1012.4 hPa | 0 mm | - | 162 W/m² | - |
| 1777746823 | 10° C | 90% | 1012.6 hPa | 0 mm | - | 135 W/m² | - |
| 1777746518 | 10° C | 90% | 1012.5 hPa | 0 mm | - | 96 W/m² | - |
| 1777746214 | 10° C | 91% | 1012.2 hPa | 0 mm | - | 122 W/m² | - |
| 1777745911 | 10° C | 90% | 1012.4 hPa | 0 mm | - | 71 W/m² | - |
| 1777745610 | 10° C | 90% | 1012.5 hPa | 0 mm | - | 77 W/m² | - |
| 1777745307 | 10° C | 90% | 1012.3 hPa | 1.78 mm | - | 125 W/m² | - |
| 1777745004 | 10° C | 89% | 1012.4 hPa | 0 mm | - | 120 W/m² | - |
| 1777744700 | 10° C | 89% | 1012.5 hPa | 1.27 mm | - | 75 W/m² | - |
| 1777744394 | 10° C | 89% | 1012.7 hPa | 1.27 mm | - | 82 W/m² | - |
| 1777744092 | 10° C | 89% | 1012.7 hPa | 0 mm | - | 91 W/m² | - |
| 1777743789 | 10.56° C | 89% | 1012.4 hPa | 0 mm | - | 78 W/m² | - |
| 1777743485 | 10.56° C | 90% | 1012.5 hPa | 0 mm | - | 82 W/m² | - |
| 1777743182 | 10.56° C | 89% | 1012.6 hPa | 0 mm | - | 98 W/m² | - |
| 1777742880 | 10.56° C | 89% | 1012.7 hPa | 0 mm | - | 110 W/m² | - |
| 1777742576 | 10.56° C | 89% | 1012.6 hPa | 1.78 mm | - | 127 W/m² | - |
| 1777742272 | 10.56° C | 88% | 1012.6 hPa | 1.78 mm | - | 107 W/m² | - |
* Rain latest hour (hover to see other rain measurements)
** Current wind speed in m/s (hover to see current wind gust speed)